Hourly Data Report for October 15, 2016

All times are specified in Local Standard Time (LST). Add 1 hour to adjust for Daylight Saving Time where and when it is observed.

WINNIPEG A CS
MANITOBA

49°55'00.000" N
97°14'58.000" W
238.70 m
502S001
71849
XWG

Download Data

Hourly Data (October 2016)
Hourly Data Report for October 15, 2016
Temp Definition
°C
Dew Point Temp Definition
°C
Rel Hum Definition
%
Wind Dir Definition
10's deg

Wind Spd Definition
km/h
Visibility Definition
km
Stn Press Definition
kPa
Hmdx Definition


Wind Chill Definition


Weather Definition


TIME
00:00 12.4 7.9 74 21 20   96.71     LegendNANA
01:00 12.2 8.3 77 20 20   96.72     LegendNANA
02:00 11.4 8.5 82 18 10   96.61     LegendNANA
03:00 11.9 8.6 80 23 12   96.66     LegendNANA
04:00 11.0 8.6 85 20 12   96.70     LegendNANA
05:00 11.5 7.8 78 21 16   96.75     LegendNANA
06:00 11.0 6.9 76 23 17   96.82     LegendNANA
07:00 9.5 5.5 76 23 15   96.85     LegendNANA
08:00 10.0 4.4 68 24 23   96.88     LegendNANA
09:00 10.4 4.2 65 25 26   96.97     LegendNANA
10:00 10.4 4.2 66 26 24   97.06     LegendNANA
11:00 12.9 3.8 54 28 38   97.19     LegendNANA
12:00 12.0 4.0 58 32 30   97.34     LegendNANA
13:00 11.5 2.0 52 32 34   97.46     LegendNANA
14:00 11.0 1.7 53 31 28   97.55     LegendNANA
15:00 10.2 1.3 54 32 27   97.63     LegendNANA
16:00 9.0 0.6 56 32 23   97.73     LegendNANA
17:00 7.9 0.4 59 34 18   97.82     LegendNANA
18:00 4.7 -0.6 69 34 10   97.92     LegendNANA
19:00 3.1 -1.2 73 35 12   98.05     LegendNANA
20:00 1.4 -1.6 81 36 9   98.13     LegendNANA
21:00 2.3 -1.3 77 2 14   98.19     LegendNANA
22:00 1.2 -1.9 80 3 16   98.26     LegendNANA
23:00 0.0 -2.4 84 2 13   98.28   -4 LegendNANA

Notes on Data Quality.

Legend

  • E = Estimated
  • M = Missing
  • NA = Not Available
  • ‡ = Partner data that is not subject to review by the National Climate Archives
Date modified: